SDM6079 UUEE-UWLL

Flight info

Callsign SDM6079
Flight time 1h 14m
Altitude 35000
Route N0460F350 KOGOM L94 EKPIR M864 IBROT T784 OTKOL T787 OKSUD T778 TERDI
Aircraft A319/M-VGDW/C

Departure

Time 2026-04-30 17:41
Airport Sheremetyevo International Airport (UUEE)

Arrival

Time 2026-04-30 18:55
Airport Ulyanovsk Baratayevka Airport (UWLL)
Time Latitude Longitude Altitude Speed Heading
2026-04-30 17:39 56.01890 37.48361 18649 ft 358 kts 87°
2026-04-30 17:41 56.01725 37.84940 23747 ft 380 kts 86°
2026-04-30 17:42 56.01664 37.94462 24675 ft 386 kts 86°
2026-04-30 17:42 56.01547 38.09044 26006 ft 396 kts 87°
2026-04-30 17:43 56.01460 38.18950 26844 ft 402 kts 87°
2026-04-30 17:44 56.01309 38.34028 28075 ft 411 kts 87°
2026-04-30 17:44 56.01133 38.49505 29250 ft 420 kts 87°
2026-04-30 17:46 56.00816 38.76128 30834 ft 436 kts 88°
2026-04-30 17:47 56.00496 38.97992 31835 ft 447 kts 89°
2026-04-30 17:48 56.00124 39.20193 33144 ft 449 kts 89°
2026-04-30 17:48 55.99823 39.36912 34058 ft 453 kts 90°
2026-04-30 17:49 55.99405 39.59443 35129 ft 454 kts 87°
2026-04-30 17:50 56.02679 39.80608 35225 ft 442 kts 77°
2026-04-30 17:52 56.03331 40.13609 35223 ft 446 kts 87°
2026-04-30 17:54 56.03884 40.63430 35216 ft 446 kts 88°
2026-04-30 17:56 56.04178 41.07776 35204 ft 447 kts 89°
2026-04-30 17:58 56.04295 41.41168 35204 ft 448 kts 89°
2026-04-30 18:00 56.04320 41.85659 35198 ft 448 kts 90°
2026-04-30 18:01 56.04244 42.13548 35198 ft 449 kts 90°
2026-04-30 18:02 56.03966 42.46930 35187 ft 448 kts 97°
2026-04-30 18:03 56.00596 42.62294 35186 ft 446 kts 125°
2026-04-30 18:04 55.95302 42.75898 35181 ft 447 kts 125°
2026-04-30 18:06 55.81037 43.12197 35179 ft 447 kts 126°
2026-04-30 18:08 55.70060 43.45486 35181 ft 447 kts 121°
2026-04-30 18:10 55.59334 43.84713 35168 ft 449 kts 95°
2026-04-30 18:11 55.58260 44.23182 35146 ft 446 kts 107°
2026-04-30 18:12 55.53569 44.37088 35141 ft 441 kts 127°
2026-04-30 18:13 55.49945 44.45830 35133 ft 441 kts 128°
2026-04-30 18:14 55.40901 44.67584 35134 ft 441 kts 128°
2026-04-30 18:15 55.29994 44.93655 35127 ft 441 kts 129°
2026-04-30 18:16 55.22707 45.10879 35133 ft 441 kts 129°
2026-04-30 18:17 55.19043 45.19489 35136 ft 441 kts 129°
2026-04-30 18:18 55.13531 45.32398 34964 ft 442 kts 129°
2026-04-30 18:18 55.11691 45.36697 34733 ft 442 kts 129°
2026-04-30 18:18 55.09851 45.40991 34506 ft 441 kts 130°
2026-04-30 18:18 55.08011 45.45276 34283 ft 441 kts 130°
2026-04-30 18:19 55.06174 45.49545 34044 ft 439 kts 130°
2026-04-30 18:19 55.04369 45.53739 33774 ft 437 kts 130°
2026-04-30 18:19 55.02549 45.57960 33506 ft 434 kts 130°
2026-04-30 18:19 55.00738 45.62149 33190 ft 432 kts 130°
2026-04-30 18:20 54.98940 45.66295 32789 ft 427 kts 130°
2026-04-30 18:20 54.97159 45.70390 32403 ft 422 kts 130°
2026-04-30 18:20 54.95401 45.74427 32017 ft 416 kts 130°
2026-04-30 18:20 54.93660 45.78419 31637 ft 411 kts 130°
2026-04-30 18:21 54.91938 45.82365 31125 ft 408 kts 130°
2026-04-30 18:21 54.90230 45.86275 30643 ft 404 kts 131°
2026-04-30 18:21 54.88533 45.90149 30152 ft 401 kts 131°
2026-04-30 18:21 54.86852 45.93980 29624 ft 396 kts 131°
2026-04-30 18:22 54.85221 45.97701 29183 ft 390 kts 131°
2026-04-30 18:22 54.81987 46.05064 28295 ft 378 kts 132°
2026-04-30 18:22 54.80193 46.08266 27865 ft 364 kts 149°
2026-04-30 18:23 54.77986 46.10220 27408 ft 354 kts 162°
2026-04-30 18:23 54.75700 46.11745 26953 ft 351 kts 163°
2026-04-30 18:23 54.73429 46.13257 26479 ft 349 kts 163°
2026-04-30 18:23 54.71169 46.14789 25988 ft 348 kts 163°
2026-04-30 18:24 54.66689 46.17917 25014 ft 346 kts 163°
2026-04-30 18:24 54.64500 46.19493 24534 ft 345 kts 163°
2026-04-30 18:24 54.62300 46.21110 24078 ft 343 kts 163°
2026-04-30 18:25 54.60115 46.22749 23611 ft 342 kts 163°
2026-04-30 18:25 54.55779 46.25996 22493 ft 338 kts 163°
2026-04-30 18:25 54.53622 46.27586 21982 ft 336 kts 163°
2026-04-30 18:26 54.49363 46.30700 21059 ft 329 kts 163°
2026-04-30 18:26 54.47265 46.32223 20609 ft 326 kts 163°
2026-04-30 18:26 54.45213 46.33708 20177 ft 323 kts 163°
2026-04-30 18:27 54.41023 46.35863 19303 ft 307 kts 181°
2026-04-30 18:27 54.38917 46.35895 18880 ft 299 kts 183°
2026-04-30 18:28 54.34840 46.35843 17984 ft 287 kts 183°
2026-04-30 18:28 54.32857 46.35806 17529 ft 283 kts 183°
2026-04-30 18:28 54.28963 46.35717 16668 ft 279 kts 183°
2026-04-30 18:29 54.27027 46.35671 16274 ft 278 kts 182°
2026-04-30 18:29 54.22072 46.40599 15162 ft 292 kts 138°
2026-04-30 18:30 54.19313 46.45671 14604 ft 291 kts 138°
2026-04-30 18:30 54.16562 46.50712 14011 ft 290 kts 138°
2026-04-30 18:31 54.15188 46.53220 13657 ft 289 kts 137°
2026-04-30 18:31 54.12452 46.58203 12939 ft 286 kts 137°
2026-04-30 18:32 54.09759 46.63098 12236 ft 283 kts 137°
2026-04-30 18:32 54.08413 46.65543 11890 ft 282 kts 136°
2026-04-30 18:32 54.05741 46.70386 11212 ft 279 kts 136°
2026-04-30 18:33 54.04414 46.72785 10870 ft 278 kts 136°
2026-04-30 18:33 54.01779 46.77541 10213 ft 275 kts 135°
2026-04-30 18:33 54.00467 46.79903 9875 ft 274 kts 135°
2026-04-30 18:34 53.99165 46.82246 9517 ft 272 kts 135°
2026-04-30 18:34 53.96572 46.86907 8853 ft 270 kts 135°
2026-04-30 18:34 53.95301 46.89193 8561 ft 270 kts 134°
2026-04-30 18:35 53.94013 46.91503 8266 ft 269 kts 134°
2026-04-30 18:35 53.92728 46.93803 7975 ft 268 kts 134°
2026-04-30 18:35 53.91445 46.96100 7686 ft 268 kts 134°
2026-04-30 18:36 53.88909 47.00641 7157 ft 259 kts 133°
2026-04-30 18:36 53.87687 47.02828 7097 ft 254 kts 133°
2026-04-30 18:36 53.85248 47.07177 7103 ft 254 kts 133°
2026-04-30 18:37 53.84070 47.09269 7101 ft 245 kts 133°
2026-04-30 18:37 53.82896 47.11351 7101 ft 244 kts 133°
2026-04-30 18:37 53.81725 47.13430 7100 ft 244 kts 133°
2026-04-30 18:37 53.80556 47.15507 7100 ft 244 kts 132°
2026-04-30 18:38 53.79683 47.17938 7099 ft 244 kts 108°
2026-04-30 18:38 53.79490 47.20768 7100 ft 244 kts 84°
2026-04-30 18:38 53.80021 47.23485 7100 ft 246 kts 59°
2026-04-30 18:38 53.81122 47.25710 7101 ft 248 kts 47°
2026-04-30 18:39 53.82303 47.27840 7102 ft 248 kts 48°
2026-04-30 18:39 53.83480 47.29974 7101 ft 248 kts 48°
2026-04-30 18:39 53.84655 47.32110 7101 ft 248 kts 48°
2026-04-30 18:39 53.85830 47.34251 7100 ft 248 kts 48°
2026-04-30 18:40 53.87004 47.36397 7100 ft 248 kts 49°
2026-04-30 18:40 53.88158 47.38515 7100 ft 248 kts 49°
2026-04-30 18:40 53.89327 47.40664 7100 ft 248 kts 49°
2026-04-30 18:40 53.90500 47.42813 7092 ft 249 kts 49°
2026-04-30 18:41 53.91683 47.44981 7101 ft 252 kts 49°
2026-04-30 18:41 53.92875 47.47165 7100 ft 252 kts 49°
2026-04-30 18:41 53.94066 47.49350 7100 ft 252 kts 49°
2026-04-30 18:41 53.95257 47.51538 7100 ft 252 kts 49°
2026-04-30 18:42 53.96450 47.53724 7096 ft 252 kts 49°
2026-04-30 18:42 53.98812 47.58066 7096 ft 248 kts 49°
2026-04-30 18:42 53.99941 47.60142 7094 ft 231 kts 49°
2026-04-30 18:45 54.11529 47.74696 4448 ft 209 kts 13°
2026-04-30 18:45 54.12948 47.75202 4183 ft 208 kts 13°
2026-04-30 18:45 54.14354 47.75704 4039 ft 206 kts 13°
2026-04-30 18:46 54.15754 47.76202 4021 ft 205 kts 13°
2026-04-30 18:46 54.17151 47.76704 4024 ft 205 kts 13°
2026-04-30 18:46 54.18548 47.77208 4025 ft 205 kts 13°
2026-04-30 18:46 54.19946 47.77715 4025 ft 205 kts 13°
2026-04-30 18:47 54.21282 47.78512 4023 ft 204 kts 34°
2026-04-30 18:47 54.22230 47.80236 3932 ft 204 kts 63°
2026-04-30 18:47 54.22529 47.82562 3750 ft 203 kts 93°
2026-04-30 18:47 54.22081 47.84833 3573 ft 205 kts 123°
2026-04-30 18:48 54.21015 47.86456 3320 ft 209 kts 146°
2026-04-30 18:48 54.19782 47.87770 3029 ft 209 kts 146°
2026-04-30 18:48 54.18546 47.89081 2752 ft 209 kts 146°
2026-04-30 18:48 54.17325 47.90433 2455 ft 209 kts 139°
2026-04-30 18:49 54.16290 47.92146 2192 ft 205 kts 126°
2026-04-30 18:49 54.15506 47.94145 2123 ft 202 kts 119°
2026-04-30 18:49 54.14757 47.96180 2130 ft 203 kts 119°
2026-04-30 18:49 54.14015 47.98186 2127 ft 202 kts 119°
2026-04-30 18:50 54.13271 48.00221 2120 ft 202 kts 116°
2026-04-30 18:50 54.12808 48.02445 2125 ft 199 kts 96°
2026-04-30 18:50 54.12812 48.04750 2119 ft 187 kts 77°
2026-04-30 18:50 54.13212 48.06727 2153 ft 170 kts 60°
2026-04-30 18:51 54.13897 48.08319 2127 ft 164 kts 44°
2026-04-30 18:51 54.14796 48.09488 2133 ft 162 kts 32°
2026-04-30 18:51 54.15750 48.10504 2135 ft 162 kts 32°
2026-04-30 18:51 54.16700 48.11518 2136 ft 161 kts 32°
2026-04-30 18:52 54.17646 48.12527 2134 ft 156 kts 32°
2026-04-30 18:52 54.18510 48.13449 2116 ft 149 kts 32°
2026-04-30 18:52 54.19380 48.14379 2003 ft 145 kts 32°
2026-04-30 18:52 54.20204 48.15259 1827 ft 132 kts 32°
2026-04-30 18:53 54.20964 48.16072 1653 ft 126 kts 32°
2026-04-30 18:53 54.21701 48.16861 1481 ft 124 kts 32°
2026-04-30 18:53 54.22434 48.17644 1310 ft 125 kts 32°
2026-04-30 18:53 54.23172 48.18435 1141 ft 126 kts 31°
2026-04-30 18:54 54.23910 48.19225 971 ft 127 kts 31°
2026-04-30 18:54 54.24658 48.20027 799 ft 127 kts 31°
2026-04-30 18:54 54.25412 48.20835 635 ft 128 kts 31°
2026-04-30 18:54 54.26165 48.21642 461 ft 127 kts 31°
2026-04-30 18:55 54.26852 48.22368 431 ft 97 kts 32°
2026-04-30 18:55 54.27692 48.23280 405 ft 65 kts 32°
2026-04-30 18:55 54.28020 48.23634 394 ft 42 kts 32°
2026-04-30 18:56 54.28303 48.23829 391 ft 14 kts 323°
2026-04-30 18:56 54.28354 48.23708 388 ft 8 kts 303°
2026-04-30 18:56 54.28361 48.23691 387 ft 0 kts 303°
2026-04-30 18:57 54.28362 48.23688 387 ft 2 kts 303°
2026-04-30 18:57 54.28379 48.23644 386 ft 7 kts 304°
2026-04-30 18:58 54.28457 48.23555 380 ft 6 kts 38°
2026-04-30 18:58 54.28474 48.23572 379 ft 0 kts 32°
2026-04-30 18:58 54.28477 48.23576 379 ft 0 kts 32°
2026-04-30 19:00 54.28480 48.23516 377 ft 0 kts 214°